Regional Weather Roundup
Issued by NWS

Home | Current Version | Previous Version | Graphics & Text | Print | Product List | Glossary On
Versions: 1 2 3 4 5 6 7 8 9 10 11 12 13 14 15 16 17 18 19 20 21 22 23 24 25 26 27 28 29 30 31 32 33 34 35 36 37 38 39 40 41 42 43 44 45 46 47 48 49 50
000
ASUS43 KFSD 290702
RWRSD

WEATHER ROUNDUP FOR SOUTH DAKOTA
NATIONAL WEATHER SERVICE SIOUX FALLS SD
100 AM CST SAT NOV 29 2014

NOTE: "FAIR" INDICATES FEW OR NO CLOUDS BELOW 12,000 FEET WITH NO
SIGNIFICANT WEATHER AND/OR OBSTRUCTIONS TO VISIBILITY.


SDZ001>005-009-010-012>017-290800-
NORTHWEST AND NORTH CENTRAL SOUTH DAKOTA

CITY           SKY/WX    TMP DP  RH WIND       PRES   REMARKS
BUFFALO          N/A     40  26  57 W12       29.33F
FAITH            N/A     35  26  69 S10       29.41F WCI  27
MOBRIDGE       PTCLDY    27  23  85 SE12      29.38F WCI  17
$$

SDZ012>016-024>037-041>051-057-063-072>074-290800-
SOUTHWEST AND SOUTH CENTRAL SOUTH DAKOTA

CITY           SKY/WX    TMP DP  RH WIND       PRES   REMARKS
RAPID CTY ARPT CLEAR     49  20  31 W16       29.46F
PIERRE         PTCLDY    29  26  89 S5        29.43F WCI  24
CUSTER         CLEAR     45  17  32 W15G23    29.57S
ELLSWORTH AFB  CLEAR     55  20  26 W16       29.44F
PHILIP         CLEAR     43  27  53 W9        29.44F
PINE RIDGE     CLEAR     53  20  27 W15       29.54F
WINNER         FAIR      47  24  40 SW15      29.46F
$$

SDZ004>011-016>023-039-040-290800-
NORTHEAST SOUTH DAKOTA

CITY           SKY/WX    TMP DP  RH WIND       PRES   REMARKS
ABERDEEN       MOCLDY    21  17  84 NE3       29.48F
WATERTOWN      PTCLDY    23  20  88 S15       29.48F WCI  10
SISSETON         N/A     19  19 100 S13       29.51F WCI   6
$$

SDZ017-020-022-023-036>040-048>070-290800-
SOUTHEAST SOUTH DAKOTA

CITY           SKY/WX    TMP DP  RH WIND       PRES   REMARKS
SIOUX FALLS    CLEAR     22  20  92 E3        29.53F FOG
HURON          CLEAR     25  23  92 S10       29.47F WCI  15
MITCHELL       CLEAR     25  23  92 SE7       29.49F FOG     WCI  17
YANKTON        PTCLDY    27  25  93 E7        29.52F WCI  19
$$

ABBREVIATIONS USED IN REMARKS
   TC - TEMPERATURE IN CELSIUS
  WCI - WIND CHILL INDEX
   HX - HEAT INDEX
  VSB - VISIBILITY



USA.gov is the U.S. government's official web portal to all federal, state and local government web resources and services.